O3B FM14 (43233 NORAD) Tracking and Keplerian Element Data

This shows tracking and keplerian element data for the satellite.

Feedback or suggestion? Click here.




ElementValue
Catalog43233
NameO3B FM14
Epoch Orbit12600
Epoch Day34.65874176
Epoch Year2025
RAAN1.7705
Inclination0.0593
Eccentricity0.0002812
Argument of Perigee312.4362
Mean Anonmoly45.7655
Mean Motion5.00115119
Decay Rate-1.4E-07
L11 43233U 18024C 25034.65874176 -.00000014 00000+0 00000+0 0 9992
L22 43233 0.0593 1.7705 0002812 312.4362 45.7655 5.00115119126002



Live tracking and technical data element details for O3B FM14 (NORAD 43233). O3B FM14 can be tracked NOW for your location showing map with azimuth and elevation plus other details from your city location.







IsCatalogInMostPopularTable: catalog: 43233, numindb: 685
Update: records affected: 1



GetName: 43233 O3B FM14

Hit Count: updated at: Wed, 30 Apr 2025 16:57:55 GMT